FDX5062 KBNA-KMEM

Flight info

Callsign FDX5062
Flight time 0h 42m
Altitude 24000
Route DANLS4 DANLS SPKER BLUZZ5
Aircraft B738/M-SDE2E3FGHIRWXY/LB1

Departure

Time 2026-05-04 18:51
Airport Nashville International Airport (KBNA)

Arrival

Time 2026-05-04 19:33
Airport Memphis International Airport (KMEM)
Time Latitude Longitude Altitude Speed Heading
2026-05-04 17:59 36.12696 -86.68633 579 ft 0 kts 287°
2026-05-04 18:43 36.12691 -86.68612 579 ft 4 kts 288°
2026-05-04 18:43 36.12681 -86.68582 579 ft 4 kts 306°
2026-05-04 18:43 36.12663 -86.68563 580 ft 4 kts 346°
2026-05-04 18:43 36.12640 -86.68563 580 ft 1 kts 18°
2026-05-04 18:44 36.12636 -86.68564 580 ft 1 kts 18°
2026-05-04 18:46 36.12637 -86.68564 580 ft 0 kts 18°
2026-05-04 18:46 36.12640 -86.68563 580 ft 1 kts 18°
2026-05-04 18:46 36.12675 -86.68549 579 ft 9 kts 17°
2026-05-04 18:47 36.12734 -86.68506 579 ft 11 kts 65°
2026-05-04 18:47 36.12775 -86.68426 579 ft 13 kts 34°
2026-05-04 18:47 36.12866 -86.68383 579 ft 15 kts 14°
2026-05-04 18:47 36.12950 -86.68334 580 ft 13 kts 78°
2026-05-04 18:48 36.12905 -86.68229 581 ft 16 kts 131°
2026-05-04 18:48 36.12833 -86.68129 578 ft 15 kts 133°
2026-05-04 18:48 36.12761 -86.68036 577 ft 15 kts 136°
2026-05-04 18:48 36.12686 -86.67944 580 ft 15 kts 133°
2026-05-04 18:49 36.12617 -86.67851 580 ft 14 kts 132°
2026-05-04 18:49 36.12551 -86.67763 581 ft 14 kts 134°
2026-05-04 18:49 36.12487 -86.67680 582 ft 13 kts 140°
2026-05-04 18:49 36.12402 -86.67688 582 ft 13 kts 198°
2026-05-04 18:50 36.12354 -86.67756 582 ft 12 kts 282°
2026-05-04 18:50 36.12380 -86.67856 582 ft 12 kts 288°
2026-05-04 18:50 36.12394 -86.67955 581 ft 12 kts 249°
2026-05-04 18:50 36.12319 -86.68003 581 ft 21 kts 197°
2026-05-04 18:51 36.11882 -86.68176 580 ft 108 kts 197°
2026-05-04 18:51 36.10934 -86.68562 665 ft 171 kts 198°
2026-05-04 18:51 36.09751 -86.69018 1537 ft 180 kts 197°
2026-05-04 18:51 36.08645 -86.69664 2698 ft 182 kts 222°
2026-05-04 18:52 36.08076 -86.71179 2989 ft 212 kts 261°
2026-05-04 18:52 36.07797 -86.73079 2991 ft 231 kts 249°
2026-05-04 18:52 36.07180 -86.74897 2997 ft 231 kts 248°
2026-05-04 18:52 36.06695 -86.76804 3544 ft 235 kts 262°
2026-05-04 18:53 36.06908 -86.78802 4344 ft 237 kts 283°
2026-05-04 18:53 36.07302 -86.80776 5142 ft 237 kts 279°
2026-05-04 18:53 36.07694 -86.82768 5865 ft 240 kts 281°
2026-05-04 18:53 36.08115 -86.84776 6558 ft 240 kts 281°
2026-05-04 18:54 36.08534 -86.86788 6930 ft 244 kts 281°
2026-05-04 18:54 36.08909 -86.88827 7035 ft 247 kts 274°
2026-05-04 18:54 36.08986 -86.90945 7656 ft 247 kts 268°
2026-05-04 18:54 36.09025 -86.93061 8421 ft 246 kts 269°
2026-05-04 18:55 36.09083 -86.95192 9085 ft 249 kts 269°
2026-05-04 18:55 36.09209 -86.99513 10440 ft 252 kts 269°
2026-05-04 18:55 36.09282 -87.01670 11144 ft 252 kts 269°
2026-05-04 18:56 36.09356 -87.03885 11579 ft 268 kts 269°
2026-05-04 18:56 36.09433 -87.06296 11782 ft 293 kts 269°
2026-05-04 18:56 36.09517 -87.08873 11984 ft 316 kts 270°
2026-05-04 18:56 36.09610 -87.11666 12372 ft 331 kts 270°
2026-05-04 18:57 36.09705 -87.14538 13056 ft 336 kts 270°
2026-05-04 18:57 36.09803 -87.17428 13836 ft 338 kts 270°
2026-05-04 18:57 36.09898 -87.20335 14593 ft 340 kts 270°
2026-05-04 18:57 36.09779 -87.23255 15288 ft 342 kts 258°
2026-05-04 18:58 36.09193 -87.26120 15996 ft 345 kts 255°
2026-05-04 18:58 36.08572 -87.28993 16691 ft 348 kts 256°
2026-05-04 18:58 36.07963 -87.31869 17308 ft 352 kts 256°
2026-05-04 18:58 36.07352 -87.34808 17953 ft 355 kts 256°
2026-05-04 18:59 36.06744 -87.37767 18596 ft 357 kts 257°
2026-05-04 18:59 36.06133 -87.40760 19205 ft 361 kts 257°
2026-05-04 18:59 36.05521 -87.43775 19830 ft 363 kts 257°
2026-05-04 18:59 36.04905 -87.46810 20420 ft 365 kts 257°
2026-05-04 19:00 36.04288 -87.49855 21042 ft 366 kts 257°
2026-05-04 19:00 36.03673 -87.52891 21832 ft 361 kts 257°
2026-05-04 19:00 36.03065 -87.55881 22593 ft 358 kts 257°
2026-05-04 19:00 36.02467 -87.58818 23245 ft 357 kts 258°
2026-05-04 19:01 36.01862 -87.61787 23839 ft 357 kts 258°
2026-05-04 19:01 36.01255 -87.64764 23925 ft 356 kts 258°
2026-05-04 19:01 36.00651 -87.67720 23972 ft 356 kts 258°
2026-05-04 19:01 36.00045 -87.70692 23968 ft 358 kts 258°
2026-05-04 19:02 35.99435 -87.73670 23973 ft 357 kts 257°
2026-05-04 19:02 35.98825 -87.76646 23969 ft 358 kts 257°
2026-05-04 19:02 35.98215 -87.79618 23961 ft 358 kts 257°
2026-05-04 19:02 35.97611 -87.82559 23972 ft 358 kts 257°
2026-05-04 19:03 35.96999 -87.85533 23969 ft 357 kts 257°
2026-05-04 19:03 35.96386 -87.88507 23970 ft 357 kts 257°
2026-05-04 19:03 35.95773 -87.91479 23955 ft 357 kts 257°
2026-05-04 19:03 35.95160 -87.94441 23955 ft 357 kts 257°
2026-05-04 19:04 35.94546 -87.97407 23965 ft 356 kts 257°
2026-05-04 19:04 35.93934 -88.00364 23952 ft 356 kts 257°
2026-05-04 19:04 35.93318 -88.03326 23965 ft 356 kts 257°
2026-05-04 19:04 35.92705 -88.06278 23969 ft 356 kts 257°
2026-05-04 19:05 35.92097 -88.09199 23965 ft 356 kts 257°
2026-05-04 19:05 35.91481 -88.12159 23960 ft 356 kts 257°
2026-05-04 19:05 35.90863 -88.15120 23965 ft 356 kts 257°
2026-05-04 19:05 35.90247 -88.18077 23950 ft 356 kts 257°
2026-05-04 19:06 35.89628 -88.21040 23966 ft 356 kts 257°
2026-05-04 19:06 35.89008 -88.23998 23961 ft 356 kts 257°
2026-05-04 19:06 35.88388 -88.26953 23970 ft 356 kts 257°
2026-05-04 19:06 35.87799 -88.29926 23953 ft 356 kts 258°
2026-05-04 19:07 35.87240 -88.32900 23952 ft 356 kts 259°
2026-05-04 19:07 35.86698 -88.35821 23947 ft 349 kts 259°
2026-05-04 19:07 35.86167 -88.38675 23936 ft 336 kts 259°
2026-05-04 19:07 35.85646 -88.41462 23676 ft 330 kts 258°
2026-05-04 19:08 35.85132 -88.44207 23357 ft 328 kts 258°
2026-05-04 19:08 35.84621 -88.46925 23047 ft 323 kts 258°
2026-05-04 19:08 35.84113 -88.49617 22665 ft 322 kts 258°
2026-05-04 19:08 35.83608 -88.52291 22290 ft 319 kts 258°
2026-05-04 19:09 35.83104 -88.54948 21919 ft 317 kts 258°
2026-05-04 19:09 35.82604 -88.57586 21551 ft 315 kts 258°
2026-05-04 19:09 35.82111 -88.60179 21191 ft 314 kts 258°
2026-05-04 19:09 35.81614 -88.62785 20825 ft 312 kts 258°
2026-05-04 19:10 35.81119 -88.65382 20467 ft 310 kts 258°
2026-05-04 19:10 35.80627 -88.67959 20103 ft 308 kts 258°
2026-05-04 19:10 35.80136 -88.70528 19753 ft 307 kts 257°
2026-05-04 19:10 35.79648 -88.73078 19402 ft 305 kts 257°
2026-05-04 19:11 35.79161 -88.75619 19043 ft 304 kts 257°
2026-05-04 19:11 35.78682 -88.78114 18703 ft 302 kts 257°
2026-05-04 19:11 35.78199 -88.80626 18348 ft 301 kts 257°
2026-05-04 19:11 35.77718 -88.83124 18001 ft 300 kts 257°
2026-05-04 19:12 35.77238 -88.85616 17654 ft 298 kts 257°
2026-05-04 19:12 35.76285 -88.90561 16974 ft 295 kts 257°
2026-05-04 19:12 35.75812 -88.93013 16637 ft 294 kts 256°
2026-05-04 19:13 35.75339 -88.95455 16299 ft 293 kts 256°
2026-05-04 19:13 35.74868 -88.97889 15960 ft 292 kts 256°
2026-05-04 19:13 35.74405 -89.00284 15634 ft 290 kts 256°
2026-05-04 19:13 35.73936 -89.02697 15323 ft 289 kts 256°
2026-05-04 19:14 35.73470 -89.05093 14990 ft 287 kts 255°
2026-05-04 19:14 35.72754 -89.07363 14650 ft 286 kts 235°
2026-05-04 19:14 35.71427 -89.09165 14361 ft 284 kts 227°
2026-05-04 19:14 35.70058 -89.10917 14019 ft 284 kts 228°
2026-05-04 19:15 35.68703 -89.12672 13706 ft 282 kts 227°
2026-05-04 19:15 35.67353 -89.14419 13389 ft 281 kts 227°
2026-05-04 19:15 35.66008 -89.16156 13065 ft 280 kts 227°
2026-05-04 19:15 35.64682 -89.17869 12748 ft 279 kts 227°
2026-05-04 19:16 35.63349 -89.19589 12449 ft 277 kts 227°
2026-05-04 19:16 35.62019 -89.21305 12145 ft 276 kts 227°
2026-05-04 19:16 35.60699 -89.23004 11828 ft 275 kts 227°
2026-05-04 19:16 35.59414 -89.24734 11519 ft 274 kts 230°
2026-05-04 19:17 35.58208 -89.26538 11199 ft 273 kts 231°
2026-05-04 19:17 35.57017 -89.28349 10888 ft 272 kts 231°
2026-05-04 19:17 35.55832 -89.30148 10572 ft 271 kts 231°
2026-05-04 19:17 35.54665 -89.31910 10483 ft 257 kts 231°
2026-05-04 19:18 35.53590 -89.33520 10368 ft 237 kts 230°
2026-05-04 19:18 35.52585 -89.35022 10220 ft 219 kts 230°
2026-05-04 19:18 35.51650 -89.36411 10083 ft 205 kts 230°
2026-05-04 19:18 35.50749 -89.37758 10013 ft 204 kts 230°
2026-05-04 19:19 35.49850 -89.39103 9982 ft 204 kts 231°
2026-05-04 19:19 35.49099 -89.40590 9773 ft 206 kts 242°
2026-05-04 19:19 35.48468 -89.42158 9592 ft 203 kts 241°
2026-05-04 19:19 35.47822 -89.43695 9425 ft 202 kts 240°
2026-05-04 19:20 35.47178 -89.45204 9241 ft 202 kts 240°
2026-05-04 19:20 35.46529 -89.46715 9083 ft 199 kts 240°
2026-05-04 19:20 35.45887 -89.48217 8886 ft 199 kts 240°
2026-05-04 19:20 35.45245 -89.49711 8750 ft 197 kts 240°
2026-05-04 19:21 35.44604 -89.51204 8562 ft 198 kts 240°
2026-05-04 19:21 35.43968 -89.52688 8396 ft 196 kts 240°
2026-05-04 19:21 35.43332 -89.54169 8220 ft 196 kts 240°
2026-05-04 19:21 35.42696 -89.55640 8047 ft 195 kts 240°
2026-05-04 19:22 35.42068 -89.57097 7889 ft 196 kts 240°
2026-05-04 19:22 35.41430 -89.58575 7745 ft 198 kts 240°
2026-05-04 19:22 35.40781 -89.60077 7565 ft 200 kts 240°
2026-05-04 19:22 35.40130 -89.61590 7362 ft 201 kts 240°
2026-05-04 19:23 35.39484 -89.63084 7194 ft 196 kts 240°
2026-05-04 19:23 35.38854 -89.64538 7020 ft 192 kts 240°
2026-05-04 19:23 35.38226 -89.65990 6890 ft 194 kts 240°
2026-05-04 19:23 35.37590 -89.67465 6687 ft 197 kts 240°
2026-05-04 19:24 35.36947 -89.68943 6530 ft 197 kts 240°
2026-05-04 19:24 35.36310 -89.70418 6359 ft 196 kts 240°
2026-05-04 19:24 35.35681 -89.71868 6188 ft 195 kts 240°
2026-05-04 19:24 35.35043 -89.73337 6007 ft 196 kts 240°
2026-05-04 19:25 35.34413 -89.74805 5845 ft 193 kts 240°
2026-05-04 19:25 35.33785 -89.76249 5676 ft 191 kts 240°
2026-05-04 19:25 35.33161 -89.77677 5511 ft 189 kts 240°
2026-05-04 19:25 35.32546 -89.79092 5342 ft 188 kts 240°
2026-05-04 19:26 35.31931 -89.80500 5216 ft 188 kts 240°
2026-05-04 19:26 35.31314 -89.81914 5027 ft 189 kts 239°
2026-05-04 19:26 35.30706 -89.83312 4866 ft 188 kts 240°
2026-05-04 19:26 35.30095 -89.84724 4694 ft 188 kts 240°
2026-05-04 19:27 35.29484 -89.86131 4549 ft 186 kts 240°
2026-05-04 19:27 35.28875 -89.87532 4406 ft 188 kts 240°
2026-05-04 19:27 35.28258 -89.88960 4241 ft 192 kts 240°
2026-05-04 19:27 35.27630 -89.90400 4042 ft 191 kts 240°
2026-05-04 19:28 35.27008 -89.91809 3892 ft 186 kts 239°
2026-05-04 19:28 35.26386 -89.93193 3725 ft 186 kts 239°
2026-05-04 19:28 35.25798 -89.94559 3583 ft 183 kts 240°
2026-05-04 19:28 35.25208 -89.95925 3415 ft 182 kts 240°
2026-05-04 19:29 35.24445 -89.97129 3234 ft 181 kts 210°
2026-05-04 19:29 35.23254 -89.97631 3144 ft 184 kts 202°
2026-05-04 19:29 35.22064 -89.98253 3027 ft 188 kts 200°
2026-05-04 19:29 35.20766 -89.98271 3006 ft 191 kts 169°
2026-05-04 19:30 35.19469 -89.97936 2981 ft 189 kts 182°
2026-05-04 19:30 35.18112 -89.97964 2748 ft 199 kts 183°
2026-05-04 19:30 35.16764 -89.97818 2477 ft 193 kts 179°
2026-05-04 19:30 35.15463 -89.97823 2236 ft 184 kts 187°
2026-05-04 19:31 35.14200 -89.97861 1981 ft 181 kts 178°
2026-05-04 19:31 35.12971 -89.97692 1777 ft 176 kts 184°
2026-05-04 19:31 35.11768 -89.97846 1541 ft 175 kts 180°
2026-05-04 19:31 35.10585 -89.97543 1358 ft 172 kts 169°
2026-05-04 19:32 35.09422 -89.97422 1156 ft 165 kts 184°
2026-05-04 19:32 35.08300 -89.97545 902 ft 159 kts 187°
2026-05-04 19:32 35.07207 -89.97630 722 ft 152 kts 183°
2026-05-04 19:32 35.06253 -89.97559 640 ft 132 kts 181°
2026-05-04 19:33 35.05349 -89.97608 351 ft 130 kts 182°
2026-05-04 19:33 35.04509 -89.97591 323 ft 114 kts 180°
2026-05-04 19:33 35.03864 -89.97581 320 ft 66 kts 179°
2026-05-04 19:33 35.03532 -89.97576 321 ft 40 kts 179°
2026-05-04 19:34 35.03302 -89.97572 322 ft 22 kts 179°
2026-05-04 19:34 35.03178 -89.97549 321 ft 16 kts 138°
2026-05-04 19:34 35.03182 -89.97451 325 ft 12 kts 36°
2026-05-04 19:34 35.03263 -89.97441 324 ft 12 kts 356°
2026-05-04 19:35 35.03350 -89.97445 323 ft 12 kts 358°
2026-05-04 19:35 35.03436 -89.97448 323 ft 12 kts 359°
2026-05-04 19:35 35.03523 -89.97447 322 ft 13 kts
2026-05-04 19:35 35.03622 -89.97449 322 ft 14 kts 359°
2026-05-04 19:36 35.03723 -89.97451 324 ft 15 kts 358°
2026-05-04 19:36 35.03823 -89.97454 325 ft 14 kts
2026-05-04 19:36 35.03917 -89.97453 324 ft 13 kts 359°
2026-05-04 19:36 35.04008 -89.97456 327 ft 13 kts 359°
2026-05-04 19:37 35.04097 -89.97459 326 ft 13 kts 359°
2026-05-04 19:37 35.04191 -89.97461 324 ft 14 kts 359°
2026-05-04 19:37 35.04289 -89.97463 324 ft 15 kts 358°
2026-05-04 19:37 35.04399 -89.97468 327 ft 17 kts 359°
2026-05-04 19:38 35.04516 -89.97470 324 ft 17 kts 359°
2026-05-04 19:38 35.04631 -89.97472 327 ft 16 kts 359°
2026-05-04 19:38 35.04741 -89.97472 327 ft 16 kts 357°
2026-05-04 19:38 35.04848 -89.97476 324 ft 16 kts 360°
2026-05-04 19:39 35.04957 -89.97479 326 ft 15 kts 358°
2026-05-04 19:39 35.05061 -89.97480 323 ft 15 kts
2026-05-04 19:39 35.05161 -89.97481 327 ft 14 kts 356°
2026-05-04 19:39 35.05256 -89.97486 326 ft 13 kts
2026-05-04 19:40 35.05348 -89.97483 323 ft 13 kts
2026-05-04 19:40 35.05438 -89.97488 323 ft 14 kts 356°
2026-05-04 19:40 35.05533 -89.97495 328 ft 14 kts 358°
2026-05-04 19:40 35.05626 -89.97494 328 ft 13 kts
2026-05-04 19:41 35.05715 -89.97494 330 ft 13 kts
2026-05-04 19:41 35.05802 -89.97490 328 ft 12 kts
2026-05-04 19:41 35.05885 -89.97504 330 ft 12 kts 345°
2026-05-04 19:41 35.05963 -89.97532 327 ft 12 kts 346°
2026-05-04 19:42 35.06043 -89.97544 330 ft 11 kts 359°
2026-05-04 19:42 35.06121 -89.97541 330 ft 11 kts
2026-05-04 19:42 35.06197 -89.97543 326 ft 11 kts 358°
2026-05-04 19:42 35.06271 -89.97546 326 ft 10 kts 358°
2026-05-04 19:43 35.06325 -89.97578 328 ft 8 kts 277°
2026-05-04 19:43 35.06327 -89.97631 328 ft 1 kts 270°
2026-05-04 20:08 35.06328 -89.97612 330 ft 0 kts 270°